1487869200.37,11584,10.75,72180.5,-4.89,-20.43,-18.89,0,*51
1487869201.57,11585,10.75,72204.5,-4.87,-20.29,-18.73,0,*57
1487869202.8,11586,10.75,72232.8,-4.87,-19.95,-18.35,0,*5B
1487869204.07,11587,10.75,72210.5,-4.89,-19.99,-18.35,0,*58
1487869205.3,11588,10.75,72224.8,-4.87,-19.99,-18.35,0,*59
1487869206.54,11589,10.75,72222.8,-4.87,-19.99,-18.35,0,*58
1487869207.75,11590,10.75,72208.8,-4.87,-20.09,-18.59,0,*59
1487869208.98,11591,10.75,72172.3,-4.87,-20.15,-18.65,0,*5A
1487869210.21,11592,10.75,72186.5,-4.89,-20.25,-18.65,0,*54
1487869211.48,11593,10.75,72220.8,-4.85,-20.19,-18.59,0,*59
1487869212.7,11594,10.75,72192.0,-4.87,-20.25,-18.59,0,*53
1487869213.89,11595,10.75,72166.5,-4.87,-20.29,-18.79,0,*5C
1487869215.11,11596,10.75,72162.0,-4.87,-20.35,-18.79,0,*52
1487869216.33,11597,10.75,72186.0,-4.87,-20.25,-18.59,0,*50
1487869217.6,11598,10.75,72196.8,-4.85,-20.19,-18.55,0,*5E
1487869218.82,11599,10.75,72180.8,-4.85,-20.29,-18.83,0,*57
1487869220.06,11600,10.75,72166.0,-4.85,-20.39,-18.73,0,*5A
1487869221.28,11601,10.75,72162.0,-4.85,-20.29,-18.83,0,*55
1487869222.5,11602,10.75,72192.8,-4.87,-20.35,-18.73,0,*56
1487869223.75,11603,10.75,72196.5,-4.87,-20.35,-18.89,0,*52
1487869224.98,11604,10.75,72206.3,-4.87,-20.43,-18.93,0,*5F
1487869226.23,11605,10.75,72208.8,-4.85,-20.53,-18.99,0,*57
1487869227.46,11606,10.75,72220.8,-4.85,-20.43,-19.03,0,*57
1487869228.72,11607,10.75,72204.8,-4.89,-20.43,-18.89,0,*59
1487869229.93,11608,10.75,72204.5,-4.87,-20.59,-19.07,0,*54
1487869231.13,11609,10.75,72226.8,-4.87,-20.43,-19.07,0,*5E
1487869232.35,11610,10.75,72208.8,-4.87,-20.49,-19.03,0,*58
1487869233.58,11611,10.75,72206.0,-4.89,-20.73,-19.17,0,*5B
1487869234.83,11612,10.75,72214.8,-4.89,-20.49,-19.07,0,*50
1487869236.08,11613,10.75,72210.8,-4.89,-20.15,-18.79,0,*50
1487869237.31,11614,10.75,72216.3,-4.87,-20.43,-18.89,0,*55
1487869238.52,11615,10.75,72218.3,-4.87,-20.59,-19.17,0,*59
1487869239.77,11616,10.75,72224.8,-4.89,-20.49,-19.03,0,*50
1487869240.98,11617,10.75,72232.0,-4.87,-20.59,-19.03,0,*5E
1487869242.21,11618,10.75,72244.8,-4.87,-20.59,-19.23,0,*53
1487869243.45,11619,10.75,72270.5,-4.89,-20.63,-19.17,0,*52
1487869244.68,11620,10.75,72254.3,-4.89,-19.99,-18.49,0,*5D
1487869245.94,11621,10.75,72234.8,-4.89,-20.15,-18.73,0,*5B
1487869247.17,11622,10.75,72256.0,-4.89,-19.99,-18.49,0,*5F
1487869248.4,11623,10.75,72244.5,-4.89,-20.09,-18.65,0,*53
1487869249.66,11624,10.75,72254.0,-4.89,-20.15,-18.73,0,*5E
1487869250.87,11625,10.75,72244.5,-4.91,-19.47,-18.07,0,*58
1487869252.1,11626,10.75,72212.8,-4.89,-19.95,-18.45,0,*5B
1487869253.32,11627,10.75,72212.3,-4.89,-20.29,-18.79,0,*58
1487869254.58,11628,10.75,72254.8,-4.89,-20.15,-18.73,0,*52
1487869255.8,11629,10.75,72222.8,-4.91,-20.05,-18.55,0,*5F
1487869257.0,11630,10.75,72202.3,-4.91,-20.05,-18.65,0,*54
1487869258.23,11631,10.75,72180.8,-4.93,-20.05,-18.65,0,*57
1487869259.42,11632,10.75,72172.3,-4.91,-20.29,-18.79,0,*55
1487869260.61,11633,10.75,72176.8,-4.91,-20.29,-18.83,0,*51
1487869261.81,11634,10.75,72186.0,-4.91,-19.91,-18.49,0,*59
1487869263.04,11635,10.75,72198.0,-4.91,-19.85,-18.49,0,*5D
1487869264.24,11636,10.75,72210.0,-4.91,-20.05,-18.65,0,*52
1487869265.45,11637,10.75,72204.5,-4.91,-19.91,-18.49,0,*5A
1487869266.67,11638,10.75,72178.3,-4.93,-20.05,-18.65,0,*5E
1487869267.92,11639,10.75,72208.0,-4.89,-19.99,-18.59,0,*54
1487869269.16,11640,10.75,72176.8,-4.89,-19.99,-18.49,0,*5B
1487869270.41,11641,10.75,72164.3,-4.89,-19.65,-18.25,0,*53
1487869271.64,11642,10.75,72126.8,-4.89,-19.71,-18.25,0,*55
1487869272.9,11643,10.75,72108.8,-4.89,-19.99,-18.59,0,*59
1487869274.13,11644,10.75,72072.8,-4.89,-19.99,-18.45,0,*53
1487869275.39,11645,10.75,72044.0,-4.89,-19.85,-18.45,0,*5F
1487869276.62,11646,10.75,72052.3,-4.89,-19.95,-18.49,0,*51
1487869277.89,11647,10.75,72068.8,-4.89,-19.71,-18.31,0,*55
1487869279.12,11648,10.75,72078.8,-4.89,-19.51,-18.17,0,*5C
1487869280.39,11649,10.75,72114.5,-4.89,-19.37,-17.97,0,*5A
1487869281.66,11650,10.75,72098.0,-4.89,-19.41,-18.11,0,*52
1487869282.92,11651,10.75,72144.0,-4.87,-19.65,-18.35,0,*5D
1487869284.12,11652,10.75,72152.5,-4.87,-19.71,-18.45,0,*5C
1487869285.35,11653,10.75,72152.8,-4.87,-19.81,-18.49,0,*5E
1487869286.56,11654,10.75,72118.5,-4.87,-19.99,-18.73,0,*59
1487869287.81,11655,10.75,72130.3,-4.89,-19.99,-18.59,0,*5E
1487869289.06,11656,10.75,72118.5,-4.89,-19.65,-18.25,0,*55
1487869290.3,11657,10.75,72168.3,-4.87,-19.71,-18.35,0,*5E
1487869291.53,11658,10.75,72174.8,-4.87,-19.85,-18.49,0,*51
1487869292.82,11659,10.75,72158.0,-4.89,-19.65,-18.35,0,*5B
1487869294.05,11660,10.75,72176.0,-4.85,-19.75,-18.45,0,*5B
1487869295.3,11661,10.75,72174.3,-4.87,-19.81,-18.31,0,*50
1487869296.56,11662,10.75,72100.5,-4.89,-19.71,-18.35,0,*56
1487869297.8,11663,10.75,72136.3,-4.87,-19.71,-18.35,0,*59
1487869299.04,11664,10.75,72154.5,-4.87,-19.71,-18.35,0,*5E
1487869300.29,11665,10.75,72142.3,-4.87,-19.81,-18.35,0,*50
1487869301.55,11666,10.75,72120.0,-4.87,-19.57,-18.31,0,*5C
1487869302.82,11667,10.75,72150.3,-4.87,-19.65,-18.31,0,*5C
1487869304.06,11668,10.75,72126.8,-4.87,-19.71,-18.35,0,*52
1487869305.29,11669,10.75,72142.5,-4.87,-19.71,-18.35,0,*53
1487869306.51,11670,10.75,72078.3,-4.87,-19.81,-18.49,0,*5F
1487869307.75,11671,10.75,72126.3,-4.87,-19.57,-18.25,0,*5F
1487869308.98,11672,10.75,72120.5,-4.87,-19.57,-18.25,0,*5C
1487869310.21,11673,10.75,72142.3,-4.87,-19.57,-18.25,0,*5D
1487869311.47,11674,10.75,72148.5,-4.87,-19.57,-18.35,0,*5B
1487869312.72,11675,10.75,72154.5,-4.89,-19.81,-18.45,0,*58
1487869313.97,11676,10.75,72152.8,-4.89,-19.99,-18.59,0,*5F
1487869315.19,11677,10.75,72156.5,-4.87,-19.81,-18.45,0,*54
1487869316.44,11678,10.75,72124.5,-4.85,-19.81,-18.45,0,*59
1487869317.65,11679,10.75,72134.3,-4.87,-19.95,-18.49,0,*53
1487869318.88,11680,10.75,72128.3,-4.85,-19.75,-18.41,0,*51
1487869320.11,11681,10.75,72160.3,-4.85,-19.51,-18.21,0,*50
1487869321.38,11682,10.75,72138.0,-4.87,-19.65,-18.35,0,*53
1487869322.67,11683,10.75,72130.5,-4.85,-19.65,-18.31,0,*54
1487869323.9,11684,10.75,72134.3,-4.87,-19.71,-18.35,0,*50
1487869325.16,11685,10.75,72190.5,-4.89,-19.57,-18.25,0,*5A
1487869326.37,11686,10.75,72182.3,-4.87,-19.37,-18.17,0,*50
1487869327.59,11687,10.75,72176.3,-4.87,-19.37,-18.11,0,*57
1487869328.81,11688,10.75,72182.3,-4.87,-19.81,-18.49,0,*58
1487869330.04,11689,10.75,72184.8,-4.87,-19.51,-18.35,0,*5F
1487869331.27,11690,10.75,72184.3,-4.85,-19.47,-18.25,0,*53
1487869332.54,11691,10.75,72210.0,-4.85,-19.51,-18.31,0,*50
1487869333.83,11692,10.75,72198.5,-4.85,-19.61,-18.31,0,*50
1487869335.1,11693,10.75,72206.0,-4.87,-19.57,-18.31,0,*56
1487869336.36,11694,10.75,72200.5,-4.87,-19.65,-18.35,0,*54
1487869337.6,11695,10.75,72238.0,-4.87,-19.71,-18.35,0,*50
1487869338.82,11696,10.75,72198.8,-4.87,-19.81,-18.45,0,*5B
1487869340.05,11697,10.75,72174.5,-4.87,-19.85,-18.45,0,*5E
1487869341.31,11698,10.75,72154.8,-4.85,-19.65,-18.41,0,*59
1487869342.57,11699,10.75,72174.3,-4.87,-19.23,-17.97,0,*5C
1487869343.86,11700,10.75,72178.0,-4.85,-19.31,-17.97,0,*5C
1487869345.1,11701,10.75,72138.0,-4.87,-19.57,-18.17,0,*58
1487869346.32,11702,10.75,72194.0,-4.87,-19.41,-18.17,0,*5C
1487869347.59,11703,10.75,72200.3,-4.87,-19.27,-17.97,0,*5A
1487869348.83,11704,10.75,72152.8,-4.87,-18.79,-17.55,0,*59
1487869350.09,11705,10.75,72144.3,-4.85,-18.69,-17.41,0,*5E
1487869351.35,11706,10.75,72096.0,-4.85,-18.59,-17.35,0,*5D
1487869352.56,11707,10.75,72118.0,-4.83,-18.69,-17.49,0,*52
1487869353.79,11708,10.75,72132.0,-4.83,-18.89,-17.69,0,*51
1487869355.0,11709,10.75,72124.8,-4.83,-19.03,-17.69,0,*53
1487869356.24,11710,10.75,72122.5,-4.83,-19.13,-17.79,0,*5B
1487869357.48,11711,10.75,72108.0,-4.85,-19.13,-17.83,0,*59
1487869358.72,11712,10.75,72100.8,-4.83,-19.51,-18.31,0,*5C
1487869359.93,11713,10.75,72132.0,-4.83,-19.51,-18.25,0,*58
1487869361.16,11714,10.75,72116.8,-4.83,-19.13,-17.93,0,*5B
1487869362.39,11715,10.75,72148.5,-4.85,-19.47,-18.25,0,*5F
1487869363.62,11716,10.75,72126.0,-4.83,-19.65,-18.41,0,*58
1487869364.88,11717,10.75,72138.0,-4.85,-19.61,-18.41,0,*5B
1487869366.15,11718,10.75,72132.3,-4.85,-19.61,-18.45,0,*50
1487869367.38,11719,10.75,72144.5,-4.83,-19.61,-18.41,0,*53
1487869368.64,11720,10.75,72188.3,-4.85,-19.23,-18.07,0,*5B
1487869369.88,11721,10.75,72156.5,-4.83,-19.31,-18.21,0,*5B
1487869371.11,11722,10.75,72174.3,-4.85,-19.47,-18.41,0,*59
1487869372.35,11723,10.75,72142.5,-4.85,-19.17,-18.21,0,*5B
1487869373.61,11724,10.75,72144.0,-4.85,-18.99,-17.79,0,*59
1487869374.84,11725,10.75,72144.0,-4.83,-18.99,-17.79,0,*5E
1487869376.08,11726,10.75,72190.0,-4.85,-19.13,-18.07,0,*5E
1487869377.35,11727,10.75,72166.0,-4.85,-19.13,-17.97,0,*59
1487869378.61,11728,10.75,72164.8,-4.85,-19.03,-17.93,0,*53
1487869379.83,11729,10.75,72132.5,-4.83,-19.13,-18.07,0,*57
1487869381.07,11730,10.75,72102.3,-4.85,-19.13,-18.07,0,*59
1487869382.31,11731,10.75,72092.3,-4.83,-18.41,-17.41,0,*55
1487869383.57,11732,10.75,72058.0,-4.85,-18.99,-17.79,0,*5E
1487869384.79,11733,10.75,72126.3,-4.83,-19.03,-17.93,0,*5F
1487869386.06,11734,10.75,72174.3,-4.85,-19.03,-17.97,0,*5A
1487869387.32,11735,10.75,72194.3,-4.85,-19.03,-17.97,0,*5B
1487869388.52,11736,10.75,72206.3,-4.83,-19.17,-18.25,0,*5D
1487869389.75,11737,10.75,72122.3,-4.83,-18.99,-17.93,0,*59
1487869391.01,11738,10.75,72106.0,-4.85,-18.89,-17.83,0,*50
1487869392.23,11739,10.75,72162.8,-4.83,-18.99,-17.83,0,*56
1487869393.47,11740,10.75,72144.0,-4.85,-19.17,-18.07,0,*5A
1487869394.7,11741,10.75,72118.0,-4.83,-18.99,-17.79,0,*5C
1487869395.93,11742,10.75,72156.8,-4.83,-18.99,-17.79,0,*5F
1487869397.16,11743,10.75,72148.8,-4.83,-19.03,-17.93,0,*58
1487869398.37,11744,10.75,72168.0,-4.83,-18.99,-17.69,0,*58
1487869399.59,11745,10.75,72166.5,-4.83,-19.13,-18.07,0,*5D
1487869400.82,11746,10.75,72164.0,-4.83,-18.99,-17.93,0,*5F
1487869402.05,11747,10.75,72140.5,-4.81,-19.07,-18.07,0,*58
1487869403.29,11748,10.75,72160.3,-4.81,-19.07,-18.07,0,*57
1487869404.52,11749,10.75,72186.3,-4.81,-19.07,-18.07,0,*56
1487869405.75,11750,10.75,72184.3,-4.81,-19.17,-18.25,0,*5F
1487869406.98,11751,10.75,72162.5,-4.81,-19.17,-18.25,0,*5E
1487869408.23,11752,10.75,72150.8,-4.81,-19.41,-18.41,0,*5C
1487869409.49,11753,10.75,72140.3,-4.83,-19.61,-18.55,0,*58
1487869410.73,11754,10.75,72132.8,-4.85,-19.51,-18.45,0,*5B
1487869411.96,11755,10.75,72130.8,-4.85,-19.51,-18.45,0,*5A
1487869413.19,11756,10.75,72144.5,-4.85,-19.47,-18.41,0,*5A
1487869414.43,11757,10.75,72148.8,-4.85,-19.51,-18.45,0,*58
1487869415.71,11758,10.75,72142.5,-4.85,-19.65,-18.59,0,*5D
1487869416.96,11759,10.75,72158.5,-4.85,-19.47,-18.55,0,*50
1487869418.24,11760,10.75,72144.0,-4.87,-19.27,-18.31,0,*5C
1487869419.5,11761,10.75,72164.8,-4.87,-19.23,-18.31,0,*59
1487869420.77,11762,10.75,72160.3,-4.87,-19.27,-18.35,0,*5A
1487869422.03,11763,10.75,72164.0,-4.89,-19.41,-18.49,0,*5E
1487869423.3,11764,10.75,72160.3,-4.89,-19.17,-18.31,0,*55
1487869424.54,11765,10.75,72166.8,-4.87,-19.27,-18.45,0,*5A
1487869425.78,11766,10.75,72168.5,-4.87,-19.27,-18.45,0,*59
1487869427.04,11767,10.75,72166.5,-4.89,-19.37,-18.59,0,*5A
1487869428.3,11768,10.75,72178.8,-4.89,-19.07,-18.31,0,*58
1487869429.53,11769,10.75,72188.8,-4.89,-19.07,-18.17,0,*5D
1487869430.76,11770,10.75,72192.3,-4.89,-19.07,-18.25,0,*54
1487869432.05,11771,10.75,72206.5,-4.89,-19.23,-18.31,0,*56
1487869433.32,11772,10.75,72214.0,-4.89,-19.07,-18.31,0,*53
1487869434.61,11773,10.75,72228.3,-4.89,-19.27,-18.35,0,*54
1487869435.85,11774,10.75,72232.0,-4.91,-18.79,-18.01,0,*57
1487869437.06,11775,10.75,72220.0,-4.91,-19.07,-18.21,0,*5C
1487869438.27,11776,10.75,72232.8,-4.87,-18.73,-17.87,0,*59
1487869439.5,11777,10.75,72228.5,-4.89,-19.03,-18.17,0,*56
1487869440.73,11778,10.75,72234.3,-4.89,-18.65,-17.73,0,*55
1487869441.97,11779,10.75,72242.0,-4.89,-18.73,-17.83,0,*5C
1487869443.23,11780,10.75,72254.0,-4.89,-18.79,-18.01,0,*55
1487869444.49,11781,10.75,72252.0,-4.87,-18.89,-18.01,0,*55
1487869445.72,11782,10.75,72258.0,-4.87,-18.79,-18.01,0,*59
1487869447.0,11783,10.75,72194.8,-4.89,-18.89,-18.01,0,*59
1487869448.23,11784,10.75,72208.3,-4.89,-18.45,-17.69,0,*5F
1487869449.5,11785,10.75,72190.8,-4.89,-18.45,-17.59,0,*5D
1487869450.76,11786,10.75,72172.0,-4.89,-18.59,-17.83,0,*54
1487869452.02,11787,10.75,72180.5,-4.89,-18.35,-17.69,0,*5B
1487869453.28,11788,10.75,72138.0,-4.87,-18.35,-17.55,0,*55
1487869454.54,11789,10.75,72136.0,-4.87,-18.35,-17.59,0,*58
1487869455.8,11790,10.75,72096.3,-4.87,-18.31,-17.59,0,*54
1487869457.06,11791,10.75,72102.0,-4.87,-18.35,-17.59,0,*51
1487869458.33,11792,10.75,72098.5,-4.87,-18.31,-17.59,0,*56
1487869459.59,11793,10.75,72078.8,-4.85,-18.41,-17.55,0,*5E
1487869460.87,11794,10.75,72120.0,-4.85,-18.55,-17.79,0,*52
1487869462.1,11795,10.75,72132.8,-4.83,-18.11,-17.55,0,*5B
1487869463.36,11796,10.75,72176.8,-4.85,-18.45,-17.79,0,*51
1487869464.6,11797,10.75,72156.8,-4.85,-18.69,-18.07,0,*58
1487869465.83,11798,10.75,72184.0,-4.83,-18.55,-17.83,0,*5D
1487869467.09,11799,10.75,72160.5,-4.85,-18.55,-17.83,0,*5A
1487869468.36,11800,10.75,72114.0,-4.85,-18.41,-17.55,0,*5B
1487869469.58,11801,10.75,72154.5,-4.83,-18.25,-17.63,0,*5B
1487869470.84,11802,10.75,72176.0,-4.81,-18.21,-17.59,0,*57
1487869472.07,11803,10.75,72166.0,-4.79,-18.41,-17.63,0,*5E
1487869473.33,11804,10.75,72152.5,-4.81,-18.65,-18.01,0,*53
1487869474.58,11805,10.75,72194.5,-4.81,-18.65,-17.93,0,*56
1487869475.84,11806,10.75,72176.3,-4.81,-18.55,-17.87,0,*53
1487869477.1,11807,10.75,72196.0,-4.81,-18.41,-17.79,0,*56
1487869478.35,11808,10.75,72202.8,-4.81,-18.65,-17.93,0,*5B
1487869479.61,11809,10.75,72130.8,-4.81,-18.49,-18.01,0,*50
1487869480.85,11810,10.75,72152.0,-4.81,-18.49,-17.87,0,*59
1487869482.08,11811,10.75,72140.0,-4.81,-18.65,-18.07,0,*51
1487869483.31,11812,10.75,72138.8,-4.81,-18.65,-18.07,0,*52
1487869484.54,11813,10.75,72150.3,-4.81,-18.79,-18.17,0,*5F
1487869485.8,11814,10.75,72154.0,-4.81,-18.93,-18.25,0,*5D
1487869487.0,11815,10.75,72194.3,-4.79,-18.83,-18.21,0,*5E
1487869488.28,11816,10.75,72160.0,-4.81,-18.55,-17.93,0,*57
1487869489.53,11817,10.75,72160.5,-4.81,-18.65,-17.93,0,*55
1487869490.76,11818,10.75,72140.8,-4.81,-18.65,-18.07,0,*58
1487869492.0,11819,10.75,72164.3,-4.81,-18.41,-17.87,0,*58
1487869493.24,11820,10.75,72178.0,-4.81,-18.25,-17.87,0,*50
1487869494.49,11821,10.75,72190.0,-4.81,-18.55,-18.07,0,*51
1487869495.7,11822,10.75,72182.8,-4.79,-18.79,-18.21,0,*5F
1487869496.96,11823,10.75,72192.5,-4.81,-18.93,-18.49,0,*53
1487869498.19,11824,10.75,72154.8,-4.81,-18.99,-18.49,0,*5E
1487869499.43,11825,10.75,72144.3,-4.81,-19.13,-18.49,0,*5C
1487869500.69,11826,10.75,72156.5,-4.81,-18.83,-18.35,0,*5C
1487869501.89,11827,10.75,72174.0,-4.83,-18.99,-18.45,0,*53
1487869503.12,11828,10.75,72184.3,-4.83,-18.99,-18.55,0,*5D
1487869504.4,11829,10.75,72158.8,-4.85,-18.89,-18.55,0,*5B
1487869505.61,11830,10.75,72168.5,-4.83,-19.17,-18.73,0,*57
1487869506.85,11831,10.75,72168.3,-4.85,-19.17,-18.69,0,*5B
1487869508.08,11832,10.75,72190.3,-4.85,-18.83,-18.41,0,*5E
1487869509.31,11833,10.75,72182.3,-4.85,-18.83,-18.41,0,*5F
1487869510.55,11834,10.75,72204.5,-4.85,-19.03,-18.73,0,*50
1487869511.79,11835,10.75,72198.5,-4.85,-19.17,-18.69,0,*5F
1487869513.02,11836,10.75,72192.0,-4.85,-19.03,-18.69,0,*59
1487869514.23,11837,10.75,72216.3,-4.83,-19.13,-18.83,0,*5B
1487869515.46,11838,10.75,72230.0,-4.85,-18.83,-18.41,0,*54
1487869516.69,11839,10.75,72238.0,-4.87,-18.93,-18.49,0,*5E
1487869517.93,11840,10.75,72254.5,-4.87,-18.93,-18.45,0,*5C
1487869519.19,11841,10.75,72260.3,-4.89,-18.73,-18.35,0,*5A
1487869520.41,11842,10.75,72240.5,-4.87,-18.59,-18.17,0,*5F
1487869521.63,11843,10.75,72196.0,-4.87,-18.25,-17.83,0,*57
1487869522.84,11844,10.75,72120.0,-4.87,-18.17,-17.83,0,*51
1487869524.09,11845,10.75,72074.3,-4.85,-18.21,-17.79,0,*52
1487869525.35,11846,10.75,72094.3,-4.85,-18.11,-17.79,0,*52
1487869526.64,11847,10.75,72120.5,-4.85,-18.31,-17.97,0,*51
1487869527.88,11848,10.75,72078.3,-4.85,-18.21,-17.69,0,*5E
1487869529.16,11849,10.75,72140.0,-4.85,-17.97,-17.55,0,*52
1487869530.37,11850,10.75,72132.8,-4.83,-18.11,-17.69,0,*52
1487869531.63,11851,10.75,72152.0,-4.81,-18.35,-18.07,0,*50
1487869532.84,11852,10.75,72180.3,-4.83,-18.41,-18.11,0,*55
1487869534.1,11853,10.75,72184.8,-4.83,-18.59,-18.31,0,*5F
1487869535.31,11854,10.75,72146.8,-4.83,-18.45,-18.25,0,*50
1487869536.57,11855,10.75,72124.0,-4.83,-18.31,-17.97,0,*54
1487869537.78,11856,10.75,72106.3,-4.83,-18.07,-17.69,0,*53
1487869539.04,11857,10.75,72108.0,-4.81,-18.07,-17.63,0,*5A
1487869540.29,11858,10.75,72086.8,-4.81,-18.25,-18.01,0,*5E
1487869541.53,11859,10.75,72096.3,-4.81,-18.17,-17.87,0,*5F
1487869542.78,11860,10.75,72052.8,-4.81,-18.25,-18.01,0,*55
1487869544.01,11861,10.75,72130.3,-4.79,-18.17,-17.93,0,*56
1487869545.22,11862,10.75,72124.3,-4.79,-18.17,-17.87,0,*50
1487869546.42,11863,10.75,72100.8,-4.79,-17.87,-17.49,0,*55
1487869547.63,11864,10.75,72132.3,-4.79,-18.07,-17.87,0,*57
1487869548.86,11865,10.75,72146.0,-4.79,-18.21,-18.01,0,*53
1487869550.08,11866,10.75,72186.3,-4.79,-18.25,-17.93,0,*50
1487869551.31,11867,10.75,72184.5,-4.77,-18.45,-18.21,0,*5F
1487869552.55,11868,10.75,72194.8,-4.77,-18.49,-18.21,0,*5C
1487869553.78,11869,10.75,72206.0,-4.77,-18.49,-18.21,0,*5D
1487869555.04,11870,10.75,72212.5,-4.77,-18.49,-18.31,0,*54
1487869556.28,11871,10.75,72202.5,-4.77,-18.11,-17.83,0,*5E
1487869557.51,11872,10.75,72216.5,-4.77,-18.11,-17.73,0,*52
1487869558.74,11873,10.75,72204.5,-4.77,-18.49,-18.21,0,*56
1487869559.97,11874,10.75,72222.8,-4.77,-18.49,-18.21,0,*51
1487869561.26,11875,10.75,72162.8,-4.77,-18.59,-18.31,0,*50
1487869562.49,11876,10.75,72142.0,-4.77,-18.73,-18.45,0,*58
1487869563.75,11877,10.69,72200.3,-4.77,-18.89,-18.45,0,*5C
1487869565.01,11878,10.75,72218.8,-4.73,-18.89,-18.59,0,*5A
1487869566.24,11879,10.75,72212.8,-4.73,-18.83,-18.41,0,*58
1487869567.5,11880,10.75,72242.8,-4.77,-18.89,-18.65,0,*56
1487869568.75,11881,10.75,72216.0,-4.77,-18.79,-18.59,0,*57
1487869570.0,11882,10.75,72222.8,-4.77,-18.89,-18.49,0,*5A
1487869571.2,11883,10.75,72226.0,-4.79,-18.83,-18.49,0,*5F
1487869572.44,11884,10.75,72214.3,-4.79,-18.93,-18.65,0,*57
1487869573.69,11885,10.75,72198.8,-4.73,-18.83,-18.55,0,*5E
1487869574.92,11886,10.75,72184.5,-4.81,-18.79,-18.41,0,*50
1487869576.15,11887,10.75,72174.3,-4.81,-18.69,-18.49,0,*58
1487869577.41,11888,10.75,72172.0,-4.81,-18.93,-18.69,0,*50
1487869578.64,11889,10.69,72166.5,-4.79,-18.83,-18.55,0,*58
1487869579.89,11890,10.75,72176.5,-4.79,-18.93,-18.55,0,*51
1487869581.12,11891,10.75,72154.8,-4.79,-18.83,-18.55,0,*51
1487869582.37,11892,10.75,72142.0,-4.81,-18.83,-18.55,0,*55
1487869583.6,11893,10.75,72140.5,-4.79,-18.93,-18.65,0,*51
1487869584.83,11894,10.75,72134.5,-4.79,-18.93,-18.65,0,*56
1487869586.09,11895,10.75,72144.5,-4.81,-18.93,-18.69,0,*5C
1487869587.3,11896,10.75,72148.0,-4.79,-18.99,-18.69,0,*52
1487869588.55,11897,10.75,72160.3,-4.81,-19.07,-18.93,0,*57
1487869589.78,11898,10.75,72162.0,-4.81,-18.65,-18.41,0,*52
1487869591.04,11899,10.75,72192.3,-4.81,-18.65,-18.35,0,*50
1487869592.27,11900,10.75,72204.8,-4.79,-18.83,-18.55,0,*58
1487869593.52,11901,10.75,72182.8,-4.81,-18.83,-18.55,0,*5E
1487869594.78,11902,10.75,72202.8,-4.81,-18.93,-18.79,0,*52
1487869595.98,11903,10.75,72188.5,-4.79,-18.69,-18.49,0,*52
1487869597.26,11904,10.75,72192.8,-4.81,-18.55,-18.35,0,*56
1487869598.49,11905,10.75,72188.5,-4.81,-18.79,-18.49,0,*52
1487869599.73,11906,10.69,72170.0,-4.81,-18.79,-18.49,0,*51
1487869600.96,11907,10.75,72164.3,-4.81,-18.83,-18.65,0,*5B
1487869602.19,11908,10.75,72146.0,-4.81,-18.69,-18.41,0,*56
1487869603.44,11909,10.75,72144.0,-4.81,-18.79,-18.55,0,*53
1487869604.7,11910,10.69,72156.0,-4.81,-18.93,-18.79,0,*51
1487869605.92,11911,10.75,72182.5,-4.81,-18.99,-18.83,0,*5F
1487869607.18,11912,10.75,72176.8,-4.81,-18.93,-18.69,0,*52
1487869608.44,11913,10.75,72176.0,-4.81,-18.93,-18.65,0,*5F
1487869609.69,11914,10.75,72164.5,-4.81,-18.93,-18.79,0,*55
1487869610.89,11915,10.75,72148.0,-4.79,-18.99,-18.83,0,*5C
1487869612.1,11916,10.75,72162.8,-4.83,-19.03,-18.73,0,*57
1487869613.33,11917,10.75,72166.5,-4.83,-19.23,-19.03,0,*52
1487869614.57,11918,10.75,72160.5,-4.85,-19.37,-19.17,0,*5B
1487869615.8,11919,10.75,72150.3,-4.83,-19.23,-19.03,0,*5C
1487869617.03,11920,10.75,72158.0,-4.85,-19.03,-18.73,0,*54
1487869618.29,11921,10.75,72154.8,-4.85,-18.89,-18.69,0,*5D
1487869619.52,11922,10.75,72146.8,-4.85,-19.03,-18.73,0,*56
1487869620.75,11923,10.75,72160.5,-4.83,-19.23,-19.03,0,*55
1487869621.98,11924,10.75,72172.5,-4.85,-19.17,-19.03,0,*53
1487869623.22,11925,10.75,72178.5,-4.85,-19.17,-19.13,0,*53
1487869624.49,11926,10.75,72166.8,-4.85,-19.31,-19.17,0,*50
1487869625.72,11927,10.75,72180.8,-4.87,-18.93,-18.79,0,*53
1487869626.97,11928,10.75,72176.3,-4.89,-19.03,-18.93,0,*5E
1487869628.2,11929,10.69,72188.0,-4.87,-19.03,-18.89,0,*5A
1487869629.42,11930,10.75,72204.3,-4.87,-18.89,-18.79,0,*5E
1487869630.65,11931,10.75,72220.0,-4.85,-18.83,-18.69,0,*56
1487869631.86,11932,10.75,72236.3,-4.87,-19.07,-19.03,0,*57
1487869633.09,11933,10.75,72218.8,-4.87,-18.93,-18.73,0,*5C
1487869634.31,11934,10.75,72208.0,-4.87,-18.89,-18.79,0,*5A
1487869635.57,11935,10.69,72146.5,-4.89,-18.79,-18.59,0,*58
1487869636.8,11936,10.75,72158.3,-4.87,-18.59,-18.45,0,*5A
1487869638.05,11937,10.75,72194.3,-4.89,-18.73,-18.59,0,*50
1487869639.3,11938,10.75,72198.8,-4.89,-18.89,-18.65,0,*55
1487869640.55,11939,10.75,72184.5,-4.89,-18.73,-18.59,0,*5E
1487869641.78,11940,10.75,72120.8,-4.87,-18.49,-18.35,0,*5D
1487869643.05,11941,10.69,72118.8,-4.89,-18.45,-18.31,0,*5A
1487869644.27,11942,10.75,72130.8,-4.87,-18.35,-18.25,0,*55
1487869645.5,11943,10.75,72154.5,-4.87,-18.35,-18.17,0,*55
1487869646.73,11944,10.75,72120.3,-4.85,-18.25,-18.25,0,*50
1487869647.97,11945,10.75,72146.3,-4.85,-18.21,-18.11,0,*52
1487869649.2,11946,10.75,72120.3,-4.83,-18.31,-18.21,0,*55
1487869650.46,11947,10.75,72114.5,-4.85,-18.59,-18.45,0,*5E
1487869651.72,11948,10.75,72134.3,-4.83,-18.55,-18.31,0,*58
1487869652.97,11949,10.75,72134.8,-4.85,-18.83,-18.59,0,*5A
1487869654.21,11950,10.75,72104.8,-4.85,-18.99,-18.73,0,*51
1487869655.46,11951,10.75,72080.8,-4.85,-18.73,-18.55,0,*50
1487869656.69,11952,10.75,72096.3,-4.83,-18.83,-18.59,0,*56
1487869657.89,11953,10.75,72102.5,-4.83,-18.99,-18.83,0,*5B
1487869659.09,11954,10.75,72126.5,-4.83,-19.03,-18.83,0,*5E
1487869660.32,11955,10.75,72122.3,-4.83,-18.99,-18.89,0,*57
1487869661.55,11956,10.75,72138.0,-4.85,-19.13,-18.99,0,*50
1487869662.78,11957,10.75,72140.3,-4.85,-19.03,-18.83,0,*5B
1487869664.01,11958,10.75,72154.3,-4.85,-19.03,-18.69,0,*50
1487869665.25,11959,10.75,72168.0,-4.85,-18.99,-18.73,0,*58
1487869666.48,11960,10.75,72176.0,-4.85,-18.99,-18.69,0,*59
1487869667.74,11961,10.75,72172.5,-4.85,-18.99,-18.89,0,*56
1487869668.94,11962,10.75,72190.8,-4.87,-19.17,-19.07,0,*57
1487869670.17,11963,10.75,72196.3,-4.89,-19.17,-19.03,0,*5C
1487869671.37,11964,10.75,72212.0,-4.87,-19.17,-19.07,0,*51
1487869672.61,11965,10.75,72210.3,-4.87,-19.23,-19.17,0,*56
1487869673.84,11966,10.75,72200.3,-4.87,-19.07,-18.89,0,*55
1487869675.07,11967,10.75,72216.5,-4.87,-19.07,-18.93,0,*5F
1487869676.33,11968,10.75,72228.3,-4.89,-19.07,-18.89,0,*55
1487869677.56,11969,10.75,72238.8,-4.87,-18.93,-18.65,0,*54
1487869678.77,11970,10.75,72230.8,-4.87,-18.65,-18.49,0,*5B
1487869680.02,11971,10.75,72234.0,-4.89,-18.89,-18.49,0,*56
1487869681.29,11972,10.75,72246.0,-4.89,-18.89,-18.59,0,*54
1487869682.56,11973,10.75,72242.5,-4.89,-18.89,-18.59,0,*55
1487869683.83,11974,10.75,72240.0,-4.89,-18.93,-18.65,0,*56
1487869685.03,11975,10.75,72226.0,-4.87,-19.03,-18.73,0,*56
1487869686.26,11976,10.75,72248.5,-4.87,-18.89,-18.65,0,*51
1487869687.54,11977,10.75,72252.0,-4.89,-18.93,-18.59,0,*5A
1487869688.77,11978,10.75,72234.0,-4.89,-18.73,-18.45,0,*56
1487869690.01,11979,10.75,72224.3,-4.89,-18.65,-18.45,0,*50
1487869691.27,11980,10.75,72210.3,-4.89,-18.45,-18.31,0,*57
1487869692.55,11981,10.75,72158.8,-4.89,-18.59,-18.35,0,*5F
1487869693.79,11982,10.75,72176.0,-4.89,-18.65,-18.45,0,*54
1487869695.0,11983,10.75,72184.3,-4.87,-18.79,-18.49,0,*5A